Simultaneous Nadir Overpasses (SNOs) Predictions

Prediction of SNOs between AQUA and METOP-A Satellite Orbit:

Table of predicted SNOs for the next 14.0 days since TLE Epoch: 9/7/2018
Index Date (AQUA) Time (AQUA) Lat,Lon (AQUA) SZA (AQUA ) Date (METOP-A) Time (METOP-A) Lat,Lon (METOP-A) SZA (METOP-A ) Distance(km) Time Diff (sec)
1 09/07/2018 23:08:53 74.51,-174.44 68.73 09/07/2018 23:08:05 74.51,-174.49 68.74 1.42 48
2 09/07/2018 23:58:19 -74.56, -6.93 111.20 09/07/2018 23:58:46 -74.55, -7.05 111.21 3.66 27
3 09/10/2018 18:43:05 74.50,-107.98 69.78 09/10/2018 18:42:21 74.52,-108.06 69.81 2.99 44
4 09/10/2018 19:32:32 -74.60, 59.41 110.10 09/10/2018 19:33:01 -74.61, 59.52 110.10 3.16 29
5 09/13/2018 14:17:18 74.55, -41.65 70.90 09/13/2018 14:16:37 74.53, -41.63 70.88 2.62 41
6 09/13/2018 15:06:44 -74.60, 125.88 109.04 09/13/2018 15:07:18 -74.57, 125.82 109.07 3.23 34
7 09/16/2018 09:51:29 74.55, 24.80 71.97 09/16/2018 09:50:52 74.53, 24.80 71.96 1.85 37
8 09/16/2018 10:40:55 -74.60,-167.67 107.97 09/16/2018 10:41:33 -74.58,-167.75 107.99 3.01 38
9 09/19/2018 05:25:41 74.55, 91.23 73.06 09/19/2018 05:25:08 74.54, 91.22 73.05 1.77 33
10 09/19/2018 06:15:07 -74.59,-101.22 106.89 09/19/2018 06:15:49 -74.59,-101.33 106.90 3.49 42




NCC Satellite Simultaneous Nadir Overpasses (SNOs) Prediction Service
